Missouri River (Missouri), Jefferson City (06910450)

StateMissouriLatestUnknown (45800 cfs)
RiverMissouri RiverRatingObservedEstimated
Updated2021-02-25 9:45 (20 minutes ago)Flood - The river is flooding. Obstacles can be treacherous or deadly. The river should be avoided at this stage for casual trips and definitely for the inexperienced. Trips should be attempted only with protective gear and equipment.Flood(none)(none)
Discharge45800 cfs (median: 68400 cfs)High - The river is high and potentially dangerous, especially for the young and / or inexperienced. Normal stream obstacles are sometimes difficult to navigate. Extended distances can be attempted, but canoe travel may not be advisable.High(none)(none)
Height6.99 feetGood - Conditions are ideal for a canoe or kayak. Boats typically will drag on fewer than one-quarter of riffles, if at all, and portages are unnecessary or rare. Normal float lengths can be attempted without a problem.Good(none)(none)
TrendFalling (falling over 24 hours)Low - River is low but can still be floated. Some riffles are okay but most come with significant dragging and might need a portage. Float lengths should be reduced to accommodate low flow, dragging, and portages.Low(none)(none)
USGSExternal icon USGS Site (External icon Google Maps)Poor - River is too low to float comfortably. Most or all riffles will drag or must be portaged and some obstacles (such as slick shelf rock) cause undue problems. Avoid the river at this stage for casual paddling trips.Poor(none)(none)

Trending Data

Plot Image

Trips for Missouri River (Missouri), Jefferson City (06910450)

DateStartEndDistanceConditionDischargeHeightFishingDetails

A total of 0 rows are displayed.

Condition Descriptions

Fishing Conditions

Fish Species

Notes

Classic Trip List

The classic River Trips application is still available for use. It is updated with the new system using a data retrofit. It is no longer maintained. The original River Trips application is no longer updated (as of 1 Dec 2016) but can be checked for errors or for the condition of the data before it was converted to the new system.

Gauge Data Table

ObservationHeightDischargeMaximum
Discharge
Minimum
Discharge
Mean
Discharge
P05P10P20P25P50
(Median)
P75P80P90P95
2021-02-25 09:45 6.99 45800 142000 (2019) 43100 (2015) 77500 46000 48500 68400 105000 122000
2021-02-25 08:45 7.09 46300 142000 (2019) 43100 (2015) 77500 46000 48500 68400 105000 122000
2021-02-25 07:45 7.19 46800 142000 (2019) 43100 (2015) 77500 46000 48500 68400 105000 122000
2021-02-25 06:45 7.27 47200 142000 (2019) 43100 (2015) 77500 46000 48500 68400 105000 122000
2021-02-25 05:45 7.36 47600 142000 (2019) 43100 (2015) 77500 46000 48500 68400 105000 122000
2021-02-25 04:45 7.45 48100 142000 (2019) 43100 (2015) 77500 46000 48500 68400 105000 122000
2021-02-25 03:45 7.53 48500 142000 (2019) 43100 (2015) 77500 46000 48500 68400 105000 122000
2021-02-25 02:45 7.62 48900 142000 (2019) 43100 (2015) 77500 46000 48500 68400 105000 122000
2021-02-25 01:45 7.69 49300 142000 (2019) 43100 (2015) 77500 46000 48500 68400 105000 122000
2021-02-25 00:45 7.78 49800 142000 (2019) 43100 (2015) 77500 46000 48500 68400 105000 122000
2021-02-24 23:45 7.86 50200 98400 (2019) 41800 (2015) 67700 43900 45800 66900 88400 93100
2021-02-24 22:45 7.95 50700 98400 (2019) 41800 (2015) 67700 43900 45800 66900 88400 93100
2021-02-24 21:45 8.08 51300 98400 (2019) 41800 (2015) 67700 43900 45800 66900 88400 93100
2021-02-24 20:45 8.03 51100 98400 (2019) 41800 (2015) 67700 43900 45800 66900 88400 93100
2021-02-24 19:45 8.04 51100 98400 (2019) 41800 (2015) 67700 43900 45800 66900 88400 93100
2021-02-24 18:45 8.01 51000 98400 (2019) 41800 (2015) 67700 43900 45800 66900 88400 93100
2021-02-24 17:45 7.98 50800 98400 (2019) 41800 (2015) 67700 43900 45800 66900 88400 93100
2021-02-24 16:45 7.95 50700 98400 (2019) 41800 (2015) 67700 43900 45800 66900 88400 93100
2021-02-24 15:45 7.91 50400 98400 (2019) 41800 (2015) 67700 43900 45800 66900 88400 93100
2021-02-24 14:45 7.88 50300 98400 (2019) 41800 (2015) 67700 43900 45800 66900 88400 93100
2021-02-24 13:45 7.88 50300 98400 (2019) 41800 (2015) 67700 43900 45800 66900 88400 93100
2021-02-24 12:45 7.85 50100 98400 (2019) 41800 (2015) 67700 43900 45800 66900 88400 93100
2021-02-24 11:45 7.87 50200 98400 (2019) 41800 (2015) 67700 43900 45800 66900 88400 93100
2021-02-24 10:45 7.89 50300 98400 (2019) 41800 (2015) 67700 43900 45800 66900 88400 93100
2021-02-24 09:45 7.95 50700 98400 (2019) 41800 (2015) 67700 43900 45800 66900 88400 93100
2021-02-24 08:45 7.96 50700 98400 (2019) 41800 (2015) 67700 43900 45800 66900 88400 93100
2021-02-24 07:45 8.02 51000 98400 (2019) 41800 (2015) 67700 43900 45800 66900 88400 93100
2021-02-24 06:45 8.11 55800 98400 (2019) 41800 (2015) 67700 43900 45800 66900 88400 93100
2021-02-24 05:45 8.21 47900 98400 (2019) 41800 (2015) 67700 43900 45800 66900 88400 93100
2021-02-24 04:45 8.29 48300 98400 (2019) 41800 (2015) 67700 43900 45800 66900 88400 93100
2021-02-24 03:45 8.41 48900 98400 (2019) 41800 (2015) 67700 43900 45800 66900 88400 93100
2021-02-24 02:45 8.52 49500 98400 (2019) 41800 (2015) 67700 43900 45800 66900 88400 93100
2021-02-24 01:45 8.59 49900 98400 (2019) 41800 (2015) 67700 43900 45800 66900 88400 93100
2021-02-24 00:45 8.67 50300 98400 (2019) 41800 (2015) 67700 43900 45800 66900 88400 93100

A total of 34 rows are displayed for years 2015 through 2020.